Regional Weather Roundup
Issued by NWS

Home | Current Version | Previous Version | Graphics & Text | Print | Product List | Glossary On
Versions: 1 2 3 4 5 6 7 8 9 10 11 12 13 14 15 16 17 18 19 20 21 22 23 24 25 26 27 28 29 30 31 32 33 34 35 36 37 38 39 40 41 42 43 44 45 46 47 48 49 50
000
ASUS45 KBOU 111810
RWRCO

WEATHER ROUNDUP FOR COLORADO
NATIONAL WEATHER SERVICE DENVER/BOULDER CO
1200 PM MDT FRI JUL 11 2014

NOTE: "FAIR" INDICATES FEW OR NO CLOUDS BELOW 12000 FEET WITH NO
SIGNIFICANT WEATHER AND/OR OBSTRUCTIONS TO VISIBILITY.

COZ001>005-013-030-031-111900-
...NORTHWEST COLORADO...

CITY           SKY/WX    TMP DP  RH WIND       PRES   REMARKS
CRAIG          MOSUNNY   78  53  41 NW7       30.23F
HAYDEN         MOSUNNY   75  52  43 E6        30.26F
MEEKER         SUNNY     78  54  43 VRB5      30.23F
MOUNT WERNER   NOT AVBL
STEAMBOAT SPGS MOSUNNY   74  52  45 CALM      30.28F
WALDEN         PTSUNNY   70  46  43 SW9       30.36S
$$

COZ006>008-011-111900-
...WEST CENTRAL VALLEYS...

CITY           SKY/WX    TMP DP  RH WIND       PRES   REMARKS
GRAND JUNCTION SUNNY     87  53  31 W6        30.11F
MONTROSE       PTSUNNY   83  52  34 E3        30.19F
EAGLE          MOSUNNY   75  54  46 CALM      30.27F
RIFLE          SUNNY     81  55  40 VRB5      30.16F
DELTA          MOSUNNY   88  50  27 CALM      30.15F
NUCLA          MOSUNNY   86  46  25 SW5       30.24F
$$

COZ017>023-064>068-111900-
...SOUTHWEST COLORADO...

CITY           SKY/WX    TMP DP  RH WIND       PRES   REMARKS
DURANGO        MOSUNNY   78  51  38 W9        30.28F
CORTEZ         SUNNY     84  51  31 SW9       30.22F
PAGOSA SPRINGS MOSUNNY   76  46  33 SW10      30.35S
TELLURIDE      PTSUNNY   72  45  37 W5        30.44F
WOLF CREEK PAS NOT AVBL
$$

COZ009-010-012-014-032>034-037-058>063-111900-
...CENTRAL COLORADO...

CITY           SKY/WX    TMP DP  RH WIND       PRES   REMARKS
ASPEN          MOSUNNY   77  54  44 NW6       30.31F
BUENA VISTA    MOSUNNY   78  42  28 SE8G17    30.33S
COPPER MTN     PTSUNNY   63  43  48 W10G18    30.68S
BERTHOUD PASS  PTSUNNY   52  37  58 MISG      30.73S
COTTONWOOD PAS LGT RAIN  68  39  34 SW14G21   30.50S
GUNNISON       MOSUNNY   73  46  38 SW7       30.35F
KREMMLING      MOSUNNY   77  46  33 NW3       30.32F
LEADVILLE      PTSUNNY   69  42  37 N6        30.47F
SALIDA         PTSUNNY   80  45  29 CALM      30.35F
SUNLIGHT       MOSUNNY   70  54  56 CALM      30.59S
WILKERSON PASS CLOUDY    63  37  39 N3        30.65S
$$

COZ069>075-111900-
...SAN LUIS VALLEY/SANGRE DE CRISTO MOUNTAINS...

CITY           SKY/WX    TMP DP  RH WIND       PRES   REMARKS
ALAMOSA        SUNNY     80  45  28 MISG      30.30F
LA VETA PASS   NOT AVBL
SAGUACHE       MOSUNNY   77  48  36 S6        30.33F THUNDER
$$

COZ035-036-038>040-111900-
...NORTHERN COLORADO FRONT RANGE...

CITY           SKY/WX    TMP DP  RH WIND       PRES   REMARKS
DENVER INTL AP MOSUNNY   87  53  31 VRB5      30.14F
DMNS CITY PARK   N/A     87  53  30 E6        30.13F
AURORA         MOSUNNY   84  54  35 E2        30.17F
FRONT RANGE AP PTSUNNY   86  54  32 E6        30.16
ERIE MUNI ARPT MOSUNNY   85  52  31 E7        30.13S
BOULDER MUN AP MOSUNNY   82  55  39 E6        30.14S
CENTENNIAL     PTSUNNY   85  48  27 VRB5      30.17F
BROOMFIELD     PTSUNNY   82  54  36 E5        30.17S
FORT COLLINS   MOSUNNY   84  59  42 CALM      30.12S
LONGMONT       MOSUNNY   87  57  35 NE5       30.15S
$$

COZ041-046-047-076>085-087-088-111900-
...PIKES PEAK/PALMER DIVIDE AND SOUTHERN FOOTHILLS...

CITY           SKY/WX    TMP DP  RH WIND       PRES   REMARKS
COLO. SPRINGS  MOSUNNY   88  45  22 CALM      30.19F
A. F. ACADEMY  MOSUNNY   83  45  26 S8        30.22S
ELLICOTT       NOT AVBL
FALCON         MOSUNNY   87  46  24 NE8G16    30.26S
FORT CARSON    MOSUNNY   88  48  25 S5        30.16F
LIMON          SUNNY     87  55  33 N16G23    30.14S
MONUMENT HILL  MOSUNNY   82  43  24 E6        30.26S
TRINIDAD       SUNNY     88  49  25 CALM      30.16F
$$

COZ042>045-048>051-090-091-111900-
...NORTHEAST COLORADO...

CITY           SKY/WX    TMP DP  RH WIND       PRES   REMARKS
GREELEY ARPT   NOT AVBL
AKRON          SUNNY     83  61  47 NW13      30.10S
BURLINGTON     SUNNY     86  62  44 SE7       30.06S
WRAY           MOSUNNY   90  58  34 N6        30.03S
STERLING       SUNNY     90  64  43 NW5       30.04F
HOLYOKE        MOSUNNY   86  63  45 NE5       30.05S
FORT MORGAN    SUNNY     87  56  35 N3        30.10F
$$

COZ086-089-092>099-111900-
...SOUTHEAST COLORADO...

CITY           SKY/WX    TMP DP  RH WIND       PRES   REMARKS
PUEBLO         SUNNY     94  50  22 S12       30.05F
LA JUNTA       SUNNY     91  55  29 CALM      30.04S
LAMAR          SUNNY     96  50  20 SW10G17   29.98S
SPRINGFIELD      N/A     92  51  24 S20G33    30.07S
$$


USA.gov is the U.S. government's official web portal to all federal, state and local government web resources and services.